Voltar ao catálogo

COSMOS 970 DEB

AtivoLEO
NORAD 64970·DEBRIS·🇷🇺 Russia

Lançado Dec 21, 1977 de Baikonur Cosmodrome

Loading…

Próximas Passagens (próximas 24 horas)

TLE

EnvelhecendoSource: Space-Track

Época: Sep 10, 2026, 14:15 UTC

1 64970U 77121CF  26253.59432514  .00000222  00000-0  59368-3 0  9995
2 64970  64.8400   9.0722 0126847 260.7907  97.8759 13.32130283622099

Acompanhe COSMOS 970 DEB em tempo real com AllMySat

Download on the App Store